Weather History for Victoria, BC

Change the Weather History Date:

Sunday, December 1, 2013

  Actual Average Record
Temperature  
Mean Temperature 48 °F -  
Max Temperature 54 °F 44 °F 54 °F (2013)
Min Temperature 41 °F 33 °F 23 °F (2014)
Degree Days  
Heating Degree Days 18    
Moisture  
Dew Point 42 °F    
Average Humidity 81    
Maximum Humidity 100    
Minimum Humidity 55    
Precipitation  
Precipitation 0.03 in 0.20 in - ()
Sea Level Pressure  
Sea Level Pressure 29.82 in    
Wind  
Wind Speed 10 mph ()    
Max Wind Speed 21 mph    
Max Gust Speed 32 mph    
Visibility 2.4 miles    
Events Rain    
Averages and records for this station are not official NWS values.
T = Trace of Precipitation, MM = Missing Value Source: Averaged Metar Reports

Daily Weather History Graph

Daily Weather History Graph

Search for Another Location

Airport:

Trip Planner

Search our weather history database for the weather conditions in past years. The results will help you decide how hot, cold, wet, or windy it might be!

Date:

Astronomy

Dec. 01, 2013 Rise Set
Actual Time 7:45 AM PST 4:20 PM PST
Civil Twilight 7:09 AM PST 4:56 PM PST
Nautical Twilight 6:29 AM PST 5:35 PM PST
Astronomical Twilight 5:51 AM PST 6:13 PM PST
Moon 6:03 AM PST (12/1) 3:39 PM PST (12/1)
Length of Visible Light 9h 46m
Length of Day
8h 34m
Waning Crescent, 2% of the Moon is Illuminated
Dec 1
Waning Crescent
Dec 2
New
Dec 9
First Quarter
Dec 17
Full
Dec 25
Last Quarter

Hourly Weather History & Observations

Time (PST) Temp. Windchill Dew Point Humidity Pressure Visibility Wind Dir Wind Speed Gust Speed Precip Events Conditions
12:00 AM 46.4 °F 40.7 °F 46.4 °F 100% 30.03 in 5.0 mi SSE 12.7 mph - N/A Rain Light Rain
1:00 AM 46.4 °F 40.4 °F 46.4 °F 100% 29.99 in 1.2 mi SSE 13.8 mph - N/A   Light Drizzle
1:08 AM 46.4 °F 40.7 °F 46.4 °F 100% 29.99 in 1.2 mi SSE 12.7 mph - N/A Rain Light Rain
2:00 AM 48.2 °F - 46.4 °F 93% 29.94 in 1.2 mi SE 13.8 mph - N/A Rain Light Rain
3:00 AM 48.2 °F - 46.4 °F 93% 29.90 in 1.2 mi SSE 9.2 mph - N/A Rain Light Rain
3:10 AM 48.2 °F - 46.4 °F 93% 29.89 in 1.2 mi SE 9.2 mph - N/A   Light Drizzle
3:32 AM 48.2 °F - 46.4 °F 93% 29.88 in 1.2 mi SSE 9.2 mph - N/A Rain Light Rain
4:00 AM 48 °F - 47 °F 96% 29.87 in 1 mi SSE 9.2 mph - - Rain Light Rain
4:00 AM 48.2 °F - 48.2 °F 100% 29.86 in 1.2 mi SSE 9.2 mph - N/A Rain Light Rain
5:00 AM 48.2 °F - 46.4 °F 93% 29.80 in 1.2 mi East 6.9 mph - N/A   Overcast
5:15 AM 46.4 °F 42.9 °F 46.4 °F 100% 29.80 in 1.2 mi ENE 6.9 mph - N/A   Overcast
6:00 AM 48.2 °F - 46.4 °F 93% 29.79 in 1.2 mi SE 10.4 mph - N/A   Overcast
6:20 AM 48.2 °F - 46.4 °F 93% 29.79 in 3.0 mi SE 6.9 mph - N/A   Overcast
7:00 AM 50.0 °F - 46.4 °F 87% 29.79 in 12.0 mi SE 6.9 mph - N/A   Overcast
8:00 AM 48.2 °F - 46.4 °F 93% 29.82 in 30.0 mi Calm Calm - N/A   Mostly Cloudy
9:00 AM 51.8 °F - 44.6 °F 76% 29.83 in 30.0 mi WSW 9.2 mph 23.0 mph N/A   Mostly Cloudy
10:00 AM 51 °F - 47 °F 81% 29.82 in 28 mi South 3.5 mph - -   Partly Cloudy
10:00 AM 50.0 °F - 46.4 °F 87% 29.82 in 30.0 mi South 3.5 mph - N/A   Mostly Cloudy
11:00 AM 53.6 °F - 44.6 °F 72% 29.84 in 30.0 mi West 8.1 mph - N/A   Mostly Cloudy
12:00 PM 53.6 °F - 44.6 °F 72% 29.81 in 30.0 mi South 6.9 mph - N/A   Mostly Cloudy
1:00 PM 53.6 °F - 44.6 °F 72% 29.81 in 30.0 mi WNW 8.1 mph - N/A   Mostly Cloudy
1:37 PM 51.8 °F - 44.6 °F 76% 29.80 in 30.0 mi West 5.8 mph - N/A Rain Light Rain
2:00 PM 51.8 °F - 44.6 °F 76% 29.79 in 30.0 mi WSW 4.6 mph - N/A Rain Light Rain
3:00 PM 50.0 °F - 44.6 °F 82% 29.78 in 30.0 mi WSW 16.1 mph - N/A Rain Light Rain
4:00 PM 49 °F - 40 °F 62% 29.77 in 28 mi WSW 15.0 mph - - Rain Light Rain
4:00 PM 50.0 °F - 41.0 °F 71% 29.77 in 30.0 mi West 17.3 mph 24.2 mph N/A Rain Light Rain
4:46 PM 48.2 °F - 39.2 °F 71% 29.76 in 30.0 mi West 17.3 mph 23.0 mph N/A   Mostly Cloudy
5:00 PM 48.2 °F - 39.2 °F 71% 29.76 in 30.0 mi West 15.0 mph 28.8 mph N/A   Mostly Cloudy
6:00 PM 46.4 °F 40.4 °F 37.4 °F 71% 29.75 in 30.0 mi WSW 13.8 mph 21.9 mph N/A   Scattered Clouds
6:43 PM 46.4 °F 40.1 °F 37.4 °F 71% 29.75 in 30.0 mi West 15.0 mph 24.2 mph N/A Rain Light Rain
7:00 PM 46.4 °F 40.4 °F 37.4 °F 71% 29.74 in 30.0 mi West 13.8 mph 23.0 mph N/A Rain Light Rain
8:00 PM 44.6 °F 40.7 °F 39.2 °F 81% 29.75 in 30.0 mi SW 6.9 mph - N/A Rain Light Rain
8:34 PM 44.6 °F 36.6 °F 33.8 °F 66% 29.75 in 30.0 mi West 19.6 mph - N/A   Scattered Clouds
9:00 PM 42.8 °F 34.0 °F 33.8 °F 70% 29.76 in 30.0 mi WSW 20.7 mph 32.2 mph N/A Rain Light Rain
9:20 PM 42.8 °F 35.4 °F 33.8 °F 70% 29.77 in 30.0 mi WSW 15.0 mph 20.7 mph N/A   Scattered Clouds
10:00 PM 42 °F - 31 °F 55% 29.75 in 28 mi WSW 17.3 mph - - Rain Light Rain
10:00 PM 41.0 °F 33.1 °F 32.0 °F 70% 29.75 in 30.0 mi West 15.0 mph 25.3 mph N/A   Partly Cloudy
11:00 PM 41.0 °F 34.3 °F 32.0 °F 70% 29.78 in 30.0 mi WSW 11.5 mph - N/A   Partly Cloudy